GLO1213 SBNF-SBSP

Flight info

Callsign GLO1213
Flight time N/A
Altitude 29000
Route KUBLO UM540 ANISE
Aircraft B737/M-SDE2E3FGHIRWXY/LB1

Departure

Time 2026-04-23 16:29
Airport Ministro Victor Konder International Airport (SBNF)

Arrival

Time N/A
Airport Congonhas–Deputado Freitas Nobre Airport (SBSP)
Time Latitude Longitude Altitude Speed Heading
2026-04-23 16:12 -26.88001 -48.64911 28 ft 0 kts 146°
2026-04-23 16:22 -26.87989 -48.64919 28 ft 2 kts 147°
2026-04-23 16:22 -26.87968 -48.64930 28 ft 4 kts 188°
2026-04-23 16:22 -26.87949 -48.64917 28 ft 4 kts 238°
2026-04-23 16:22 -26.87942 -48.64903 28 ft 0 kts 236°
2026-04-23 16:25 -26.87942 -48.64904 28 ft 1 kts 236°
2026-04-23 16:25 -26.87962 -48.64936 28 ft 8 kts 243°
2026-04-23 16:26 -26.87955 -48.64977 28 ft 4 kts 324°
2026-04-23 16:26 -26.87927 -48.64998 29 ft 8 kts 326°
2026-04-23 16:26 -26.87919 -48.65058 28 ft 10 kts 242°
2026-04-23 16:26 -26.87966 -48.65137 27 ft 14 kts 234°
2026-04-23 16:27 -26.88028 -48.65235 28 ft 15 kts 234°
2026-04-23 16:27 -26.88089 -48.65331 28 ft 15 kts 234°
2026-04-23 16:27 -26.88146 -48.65422 28 ft 14 kts 234°
2026-04-23 16:27 -26.88199 -48.65512 29 ft 13 kts 239°
2026-04-23 16:28 -26.88249 -48.65598 30 ft 13 kts 236°
2026-04-23 16:28 -26.88299 -48.65681 29 ft 13 kts 236°
2026-04-23 16:28 -26.88357 -48.65746 29 ft 10 kts 213°
2026-04-23 16:28 -26.88357 -48.65774 29 ft 1 kts 348°
2026-04-23 16:29 -26.88348 -48.65760 29 ft 9 kts 55°
2026-04-23 16:29 -26.88116 -48.65382 28 ft 108 kts 56°
2026-04-23 16:29 -26.87573 -48.64446 325 ft 161 kts 58°
2026-04-23 16:29 -26.86971 -48.63407 1516 ft 156 kts 54°
2026-04-23 16:30 -26.86358 -48.62401 2615 ft 160 kts 55°
2026-04-23 16:30 -26.85663 -48.61280 3155 ft 197 kts 56°
2026-04-23 16:30 -26.84812 -48.59905 3492 ft 232 kts 56°
2026-04-23 16:30 -26.83875 -48.58386 4269 ft 241 kts 56°
2026-04-23 16:31 -26.82923 -48.56837 5185 ft 242 kts 57°
2026-04-23 16:31 -26.81962 -48.55271 6044 ft 247 kts 57°
2026-04-23 16:31 -26.80982 -48.53671 6842 ft 251 kts 57°
2026-04-23 16:31 -26.79984 -48.52041 7603 ft 255 kts 57°
2026-04-23 16:32 -26.78975 -48.50391 8375 ft 259 kts 57°
2026-04-23 16:32 -26.77949 -48.48714 9134 ft 263 kts 56°
2026-04-23 16:32 -26.76906 -48.47008 9871 ft 268 kts 56°
2026-04-23 16:32 -26.75844 -48.45271 10538 ft 272 kts 56°
2026-04-23 16:33 -26.74769 -48.43514 11196 ft 276 kts 56°
2026-04-23 16:33 -26.73675 -48.41728 11844 ft 280 kts 56°
2026-04-23 16:33 -26.72583 -48.39945 12481 ft 284 kts 56°
2026-04-23 16:33 -26.71483 -48.38094 13132 ft 287 kts 57°
2026-04-23 16:34 -26.70395 -48.36212 13785 ft 290 kts 57°
2026-04-23 16:34 -26.69290 -48.34293 14358 ft 295 kts 57°
2026-04-23 16:34 -26.68156 -48.32323 14712 ft 312 kts 57°
2026-04-23 16:34 -26.66930 -48.30200 14862 ft 339 kts 57°
2026-04-23 16:35 -26.65614 -48.27924 15396 ft 354 kts 57°
2026-04-23 16:35 -26.64264 -48.25593 16203 ft 360 kts 57°
2026-04-23 16:35 -26.62896 -48.23234 17057 ft 364 kts 56°
2026-04-23 16:35 -26.61508 -48.20840 17863 ft 370 kts 56°
2026-04-23 16:36 -26.60095 -48.18407 18617 ft 376 kts 56°
2026-04-23 16:36 -26.58661 -48.15936 19296 ft 382 kts 56°
2026-04-23 16:36 -26.57216 -48.13452 19951 ft 389 kts 56°
2026-04-23 16:36 -26.55618 -48.10988 20609 ft 393 kts 44°
2026-04-23 16:37 -26.53521 -48.09023 21303 ft 395 kts 35°
2026-04-23 16:37 -26.51308 -48.07161 21993 ft 401 kts 34°
2026-04-23 16:37 -26.49057 -48.05286 22643 ft 407 kts 34°
2026-04-23 16:37 -26.46781 -48.03372 23289 ft 413 kts 34°
2026-04-23 16:38 -26.44486 -48.01417 23883 ft 418 kts 34°
2026-04-23 16:38 -26.42160 -47.99419 24405 ft 424 kts 34°
2026-04-23 16:38 -26.39816 -47.97395 24948 ft 428 kts 34°
2026-04-23 16:38 -26.37450 -47.95351 25501 ft 432 kts 34°
2026-04-23 16:39 -26.35051 -47.93282 26041 ft 437 kts 33°
2026-04-23 16:39 -26.32631 -47.91213 26555 ft 441 kts 32°
2026-04-23 16:39 -26.30173 -47.89218 27075 ft 443 kts 31°
2026-04-23 16:39 -26.27616 -47.87196 27593 ft 447 kts 30°
2026-04-23 16:40 -26.25100 -47.85216 28176 ft 449 kts 30°
2026-04-23 16:40 -26.22561 -47.83207 28853 ft 448 kts 30°
2026-04-23 16:40 -26.20015 -47.81183 29142 ft 451 kts 30°
2026-04-23 16:40 -26.17474 -47.79153 29126 ft 447 kts 30°
2026-04-23 16:41 -26.12430 -47.75126 29156 ft 448 kts 30°
2026-04-23 16:41 -26.07348 -47.71088 29152 ft 449 kts 30°
2026-04-23 16:42 -26.02258 -47.67051 29150 ft 449 kts 30°
2026-04-23 16:42 -25.97171 -47.63019 29139 ft 448 kts 30°
2026-04-23 16:43 -25.92110 -47.59009 29139 ft 446 kts 30°
2026-04-23 16:43 -25.87068 -47.55019 29140 ft 444 kts 30°
2026-04-23 16:44 -25.82029 -47.51037 29146 ft 444 kts 30°
2026-04-23 16:44 -25.77000 -47.47066 29142 ft 444 kts 30°
2026-04-23 16:45 -25.71953 -47.43086 29146 ft 445 kts 30°
2026-04-23 16:45 -25.66897 -47.39102 29135 ft 445 kts 30°
2026-04-23 16:46 -25.61848 -47.35128 29141 ft 445 kts 30°
2026-04-23 16:46 -25.56797 -47.31157 29142 ft 445 kts 30°
2026-04-23 16:47 -25.51746 -47.27189 29141 ft 445 kts 30°
2026-04-23 16:47 -25.46725 -47.23249 29141 ft 445 kts 30°
2026-04-23 16:48 -25.41671 -47.19288 29141 ft 445 kts 30°
2026-04-23 16:48 -25.36615 -47.15329 29127 ft 445 kts 30°
2026-04-23 16:49 -25.31571 -47.11383 29137 ft 444 kts 30°
2026-04-23 16:49 -25.26531 -47.07444 29138 ft 443 kts 30°
2026-04-23 16:50 -25.21494 -47.03511 29139 ft 443 kts 30°
2026-04-23 16:50 -25.16458 -46.99583 29138 ft 443 kts 30°
2026-04-23 16:51 -25.11370 -46.95850 29133 ft 440 kts 26°
2026-04-23 16:51 -25.06092 -46.92423 29139 ft 440 kts 25°
2026-04-23 16:52 -25.00806 -46.89022 29137 ft 440 kts 25°
2026-04-23 16:52 -24.95524 -46.85581 29140 ft 441 kts 25°
2026-04-23 16:53 -24.90328 -46.82179 29136 ft 441 kts 25°
2026-04-23 16:53 -24.87690 -46.80450 28963 ft 443 kts 25°
2026-04-23 16:53 -24.85064 -46.78733 28440 ft 443 kts 26°
2026-04-23 16:54 -24.82425 -46.77005 27887 ft 439 kts 26°
2026-04-23 16:54 -24.79804 -46.75289 27343 ft 435 kts 26°
2026-04-23 16:54 -24.77213 -46.73595 26814 ft 431 kts 26°
2026-04-23 16:54 -24.74644 -46.71917 26274 ft 428 kts 27°
2026-04-23 16:55 -24.72096 -46.70254 25741 ft 424 kts 27°
2026-04-23 16:55 -24.69566 -46.68604 25206 ft 422 kts 27°
2026-04-23 16:55 -24.67049 -46.66963 24666 ft 419 kts 27°
2026-04-23 16:55 -24.64547 -46.65333 24129 ft 417 kts 28°
2026-04-23 16:56 -24.62055 -46.63718 23560 ft 414 kts 26°
2026-04-23 16:56 -24.59406 -46.62607 22978 ft 405 kts
2026-04-23 16:56 -24.57569 -46.62388 22726 ft 395 kts 359°
2026-04-23 16:56 -24.53941 -46.62401 22200 ft 384 kts 356°
2026-04-23 16:57 -24.51326 -46.62461 21822 ft 379 kts 356°
2026-04-23 16:57 -24.48704 -46.62510 21440 ft 375 kts 357°
2026-04-23 16:57 -24.46099 -46.62539 21075 ft 372 kts 358°
2026-04-23 16:57 -24.43517 -46.62552 20716 ft 370 kts 358°
2026-04-23 16:58 -24.40992 -46.62560 20365 ft 367 kts 358°
2026-04-23 16:58 -24.38439 -46.62565 19968 ft 366 kts 359°
2026-04-23 16:58 -24.35888 -46.62567 19538 ft 367 kts 359°
2026-04-23 16:58 -24.33333 -46.62568 19089 ft 368 kts 359°
2026-04-23 16:59 -24.30775 -46.62569 18650 ft 368 kts 359°
2026-04-23 16:59 -24.28223 -46.62570 18170 ft 365 kts 360°
2026-04-23 16:59 -24.25699 -46.62571 17708 ft 360 kts
2026-04-23 16:59 -24.23213 -46.62573 17270 ft 355 kts
2026-04-23 17:00 -24.20764 -46.62574 16852 ft 350 kts
2026-04-23 17:00 -24.18342 -46.62576 16425 ft 346 kts
2026-04-23 17:00 -24.15947 -46.62578 16034 ft 342 kts
2026-04-23 17:00 -24.13579 -46.62579 15635 ft 339 kts
2026-04-23 17:01 -24.11226 -46.62581 15241 ft 336 kts
2026-04-23 17:01 -24.08896 -46.62582 14846 ft 334 kts
2026-04-23 17:01 -24.06573 -46.62584 14429 ft 333 kts
2026-04-23 17:01 -24.04295 -46.62585 14038 ft 331 kts
2026-04-23 17:02 -24.02748 -46.62586 13755 ft 330 kts
2026-04-23 17:02 -24.00455 -46.62588 13321 ft 328 kts
2026-04-23 17:02 -23.99718 -46.62588 13189 ft 326 kts